• In Uzbekistan
  • List of Countries
  • For 7 days
  • Water Temperature
  • Satellite Maps
  • Weather Map
  • Weather Widgets
  • user-avatar
    Login

    Hourly Weather Edmundston

    Today, 19 January, Saturday

    Time Temperature Precipitation Wind Pressure Humidity
    00:00 -23°C° 0 mm 4 mps 704 mmHg 93%
    01:00 -23°C° 0 mm 4 mps 703 mmHg 93%
    02:00 -24°C° 0 mm 5 mps 703 mmHg 93%
    03:00 -24°C° 0 mm 5 mps 702 mmHg 93%
    04:00 -22°C° 0 mm 4 mps 702 mmHg 92%
    05:00 -22°C° 0.1 mm 5 mps 701 mmHg 92%
    06:00 -23°C° 0.1 mm 6 mps 700 mmHg 92%
    07:00 -24°C° 0.1 mm 7 mps 699 mmHg 92%
    08:00 -22°C° 0.2 mm 6 mps 699 mmHg 92%
    09:00 -22°C° 0.2 mm 6 mps 699 mmHg 91%
    10:00 -21°C° 0.2 mm 6 mps 698 mmHg 91%
    11:00 -20°C° 0 mm 6 mps 698 mmHg 91%
    12:00 -18°C° 0 mm 6 mps 697 mmHg 91%
    13:00 -17°C° 0 mm 6 mps 696 mmHg 91%
    14:00 -17°C° 0 mm 5 mps 696 mmHg 92%
    15:00 -16°C° 0 mm 4 mps 696 mmHg 93%
    16:00 -16°C° 0 mm 4 mps 696 mmHg 93%
    17:00 -15°C° 0 mm 3 mps 696 mmHg 94%
    18:00 -15°C° 0 mm 3 mps 696 mmHg 94%
    19:00 -14°C° 0 mm 2 mps 696 mmHg 94%
    20:00 -13°C° 0 mm 2 mps 696 mmHg 94%
    21:00 -12°C° 0 mm 2 mps 696 mmHg 93%
    22:00 -10°C° 0 mm 2 mps 696 mmHg 92%
    23:00 -8°C° 0 mm 2 mps 696 mmHg 90%

    Tomorrow, 20 January, Sunday

    Time Temperature Precipitation Wind Pressure Humidity
    00:00 -7°C° 0 mm 2 mps 696 mmHg 87%
    01:00 -6°C° 0 mm 2 mps 696 mmHg 84%
    02:00 -7°C° 0 mm 3 mps 696 mmHg 82%
    03:00 -6°C° 0 mm 3 mps 696 mmHg 80%
    04:00 -6°C° 0 mm 3 mps 696 mmHg 79%
    05:00 -6°C° 0 mm 3 mps 695 mmHg 77%
    06:00 -5°C° 0 mm 4 mps 695 mmHg 76%
    07:00 -5°C° 0 mm 4 mps 695 mmHg 75%
    08:00 -5°C° 0 mm 4 mps 694 mmHg 76%
    09:00 -5°C° 0 mm 4 mps 694 mmHg 76%
    10:00 -4°C° 0 mm 4 mps 694 mmHg 77%
    11:00 -4°C° 0 mm 4 mps 693 mmHg 77%
    12:00 -2°C° 0 mm 3 mps 693 mmHg 78%
    13:00 -2°C° 0 mm 3 mps 693 mmHg 79%
    14:00 -2°C° 0 mm 3 mps 693 mmHg 78%
    15:00 -2°C° 0 mm 3 mps 692 mmHg 78%
    16:00 -3°C° 0 mm 4 mps 692 mmHg 77%
    17:00 -3°C° 0 mm 4 mps 693 mmHg 78%
    18:00 -3°C° 0 mm 4 mps 693 mmHg 78%
    19:00 -3°C° 0 mm 4 mps 693 mmHg 78%
    20:00 -3°C° 0 mm 4 mps 693 mmHg 80%
    21:00 -3°C° 0 mm 4 mps 694 mmHg 81%
    22:00 -5°C° 0 mm 5 mps 694 mmHg 82%
    23:00 -5°C° 0 mm 4 mps 694 mmHg 86%

    Day after tomorrow, 21 January, Monday

    Time Temperature Precipitation Wind Pressure Humidity
    00:00 -5°C° 0 mm 3 mps 695 mmHg 89%
    01:00 -6°C° 0 mm 3 mps 695 mmHg 93%
    02:00 -7°C° 0.1 mm 2 mps 696 mmHg 93%
    03:00 -8°C° 0.1 mm 2 mps 696 mmHg 94%
    04:00 -10°C° 0.1 mm 2 mps 696 mmHg 94%
    05:00 -12°C° 0 mm 2 mps 697 mmHg 94%
    06:00 -11°C° 0 mm 1 mps 697 mmHg 93%
    07:00 -12°C° 0 mm 1 mps 697 mmHg 93%
    08:00 -11°C° 0.1 mm 1 mps 698 mmHg 93%
    09:00 -10°C° 0.1 mm 1 mps 699 mmHg 93%
    10:00 -8°C° 0.1 mm 1 mps 699 mmHg 93%
    11:00 -7°C° 0 mm 1 mps 699 mmHg 93%
    12:00 -4°C° 0 mm 1 mps 700 mmHg 92%
    13:00 -5°C° 0 mm 2 mps 700 mmHg 92%
    14:00 -5°C° 0 mm 2 mps 700 mmHg 89%
    15:00 -6°C° 0 mm 3 mps 700 mmHg 87%
    16:00 -6°C° 0 mm 3 mps 700 mmHg 85%
    17:00 -7°C° 0 mm 3 mps 700 mmHg 85%
    18:00 -7°C° 0 mm 3 mps 700 mmHg 84%
    19:00 -7°C° 0 mm 3 mps 700 mmHg 84%
    20:00 -8°C° 0 mm 3 mps 700 mmHg 84%
    21:00 -8°C° 0 mm 3 mps 700 mmHg 84%
    22:00 -9°C° 0 mm 3 mps 700 mmHg 84%
    23:00 -9°C° 0 mm 3 mps 700 mmHg 83%

    22 January, Tuesday

    Time Temperature Precipitation Wind Pressure Humidity
    00:00 -9°C° 0 mm 3 mps 700 mmHg 82%
    01:00 -10°C° 0 mm 3 mps 699 mmHg 81%
    02:00 -10°C° 0 mm 3 mps 699 mmHg 80%
    03:00 -10°C° 0 mm 3 mps 698 mmHg 79%
    04:00 -10°C° 0 mm 3 mps 698 mmHg 78%
    05:00 -10°C° 0 mm 3 mps 697 mmHg 78%
    06:00 -9°C° 0 mm 3 mps 697 mmHg 78%
    07:00 -9°C° 0 mm 3 mps 696 mmHg 78%
    08:00 -8°C° 0 mm 3 mps 696 mmHg 80%
    09:00 -8°C° 0 mm 3 mps 696 mmHg 82%
    10:00 -7°C° 0 mm 3 mps 696 mmHg 84%
    11:00 -5°C° 0.3 mm 3 mps 695 mmHg 86%
    12:00 -4°C° 0.3 mm 4 mps 695 mmHg 88%
    13:00 -2°C° 0.3 mm 4 mps 694 mmHg 90%
    14:00 -3°C° 0 mm 4 mps 694 mmHg 88%
    15:00 -3°C° 0 mm 4 mps 694 mmHg 86%
    16:00 -4°C° 0 mm 4 mps 694 mmHg 84%
    17:00 -4°C° 0 mm 4 mps 694 mmHg 84%
    18:00 -3°C° 0 mm 4 mps 695 mmHg 84%
    19:00 -3°C° 0 mm 4 mps 695 mmHg 84%
    20:00 -4°C° 0 mm 4 mps 695 mmHg 86%
    21:00 -4°C° 0 mm 3 mps 695 mmHg 88%
    22:00 -5°C° 0 mm 3 mps 695 mmHg 89%
    23:00 -6°C° 0 mm 3 mps 695 mmHg 90%

    23 January, Wednesday

    Time Temperature Precipitation Wind Pressure Humidity
    00:00 -5°C° 0 mm 2 mps 695 mmHg 91%
    01:00 -6°C° 0 mm 2 mps 696 mmHg 92%
    02:00 -6°C° 0 mm 2 mps 696 mmHg 93%
    03:00 -7°C° 0 mm 2 mps 696 mmHg 94%
    04:00 -7°C° 0 mm 2 mps 696 mmHg 95%
    05:00 -8°C° 0 mm 2 mps 697 mmHg 95%
    06:00 -9°C° 0 mm 2 mps 698 mmHg 95%
    07:00 -10°C° 0 mm 2 mps 698 mmHg 95%
    08:00 -10°C° 0 mm 2 mps 699 mmHg 95%
    09:00 -10°C° 0 mm 2 mps 700 mmHg 95%
    10:00 -10°C° 0 mm 2 mps 701 mmHg 95%
    11:00 -10°C° 0 mm 2 mps 701 mmHg 94%
    12:00 -10°C° 0 mm 2 mps 702 mmHg 93%
    13:00 -8°C° 0 mm 1 mps 702 mmHg 92%
    14:00 -8°C° 0 mm 1 mps 702 mmHg 92%
    15:00 -9°C° 0 mm 1 mps 703 mmHg 92%
    16:00 -9°C° 0 mm 1 mps 703 mmHg 92%
    17:00 -9°C° 0 mm 1 mps 703 mmHg 92%
    18:00 -9°C° 0 mm 1 mps 703 mmHg 93%
    19:00 -8°C° 0 mm 1 mps 704 mmHg 93%
    20:00 -8°C° 0.1 mm 1 mps 704 mmHg 94%
    21:00 -7°C° 0.1 mm 1 mps 704 mmHg 95%
    22:00 -6°C° 0.1 mm 1 mps 704 mmHg 95%
    23:00 -4°C° 0.1 mm 1 mps 703 mmHg 95%

    24 January, Thursday

    Time Temperature Precipitation Wind Pressure Humidity
    00:00 -4°C° 0.1 mm 1 mps 703 mmHg 95%
    01:00 -3°C° 0.1 mm 1 mps 703 mmHg 95%
    02:00 -5°C° 0.1 mm 2 mps 703 mmHg 93%
    03:00 -5°C° 0.1 mm 3 mps 702 mmHg 92%
    04:00 -5°C° 0.1 mm 4 mps 702 mmHg 91%
    05:00 -4°C° 0.1 mm 4 mps 702 mmHg 91%
    06:00 -2°C° 0.1 mm 4 mps 701 mmHg 90%
    07:00 -1°C° 0.1 mm 4 mps 701 mmHg 89%
    08:00 -1°C° 0 mm 4 mps 701 mmHg 87%
    09:00 -1°C° 0 mm 5 mps 700 mmHg 85%
    10:00 0°C° 0 mm 5 mps 700 mmHg 83%
    11:00 0°C° 0 mm 5 mps 699 mmHg 85%
    12:00 0°C° 0 mm 5 mps 699 mmHg 87%
    13:00 0°C° 0 mm 4 mps 698 mmHg 90%
    14:00 0°C° 0.1 mm 4 mps 698 mmHg 88%
    15:00 -1°C° 0.1 mm 4 mps 698 mmHg 86%
    16:00 -1°C° 0.1 mm 4 mps 698 mmHg 84%
    17:00 -1°C° 0.2 mm 4 mps 698 mmHg 84%
    18:00 -1°C° 0.2 mm 4 mps 698 mmHg 85%
    19:00 -1°C° 0.2 mm 4 mps 698 mmHg 85%
    20:00 -1°C° 0.3 mm 4 mps 698 mmHg 86%
    21:00 -2°C° 0.3 mm 4 mps 698 mmHg 86%
    22:00 -2°C° 0.3 mm 4 mps 697 mmHg 86%
    23:00 -2°C° 0.4 mm 5 mps 698 mmHg 86%
    Show more